Location: Kermapucano
(48.0667°N, 3.3000°W)
Time: 19:51:40
(UTC+00:00)

Cosmos 2150 Rocket - Pass Details

Date: 29 November 2020
Orbit: 749 x 807 km, 74.0° (Epoch: 27 January)

Event Time Altitude Azimuth Distance (km) Brightness Sun altitude
Rises 06:59:18 0° 202° (SSW) 3,266 7.3 -6.8°
Reaches altitude 10° 07:01:41 10° 203° (SSW) 2,333 6.6 -6.5°
Maximum altitude 07:07:00 85° 292° (WNW) 783 4.0 -5.7°
Drops below altitude 10° 07:12:16 10° 22° (NNE) 2,311 6.4 -4.9°
Sets 07:14:38 0° 23° (NNE) 3,233 7.2 -4.5°
